BEL32T ELLX-EBBR

Flight info

Callsign BEL32T
Flight time 0h 21m
Altitude 18000
Route LNO
Aircraft A320/M-SDE2E3FGHIRWXY/LB1

Departure

Time 2026-05-01 14:02
Airport Luxembourg-Findel International Airport (ELLX)

Arrival

Time 2026-05-01 14:24
Airport Brussels Airport (EBBR)
Time Latitude Longitude Altitude Speed Heading
2026-05-01 13:45 49.63318 6.21496 1222 ft 0 kts 329°
2026-05-01 13:54 49.63318 6.21497 1222 ft 0 kts 329°
2026-05-01 13:57 49.63317 6.21489 1222 ft 2 kts 272°
2026-05-01 13:57 49.63290 6.21514 1220 ft 7 kts 141°
2026-05-01 13:58 49.63267 6.21532 1219 ft 0 kts 186°
2026-05-01 13:58 49.63254 6.21529 1218 ft 6 kts 188°
2026-05-01 13:58 49.63201 6.21564 1215 ft 11 kts 151°
2026-05-01 13:59 49.63140 6.21616 1211 ft 16 kts 151°
2026-05-01 13:59 49.63057 6.21581 1205 ft 16 kts 247°
2026-05-01 13:59 49.63004 6.21420 1205 ft 17 kts 246°
2026-05-01 13:59 49.62956 6.21248 1206 ft 18 kts 248°
2026-05-01 14:00 49.62919 6.21131 1206 ft 19 kts 244°
2026-05-01 14:00 49.62842 6.20890 1206 ft 20 kts 240°
2026-05-01 14:00 49.62763 6.20701 1204 ft 22 kts 227°
2026-05-01 14:00 49.62649 6.20551 1196 ft 20 kts 223°
2026-05-01 14:01 49.62575 6.20456 1192 ft 11 kts 197°
2026-05-01 14:01 49.62505 6.20512 1190 ft 13 kts 149°
2026-05-01 14:01 49.62438 6.20590 1188 ft 10 kts 107°
2026-05-01 14:01 49.62480 6.20716 1191 ft 30 kts 60°
2026-05-01 14:02 49.62720 6.21363 1199 ft 105 kts 59°
2026-05-01 14:02 49.63183 6.22615 1228 ft 156 kts 71°
2026-05-01 14:02 49.63690 6.24167 1752 ft 166 kts 67°
2026-05-01 14:02 49.64231 6.25789 2456 ft 175 kts 66°
2026-05-01 14:03 49.64881 6.27407 3151 ft 185 kts 52°
2026-05-01 14:03 49.66076 6.28456 3718 ft 216 kts 12°
2026-05-01 14:03 49.67668 6.28282 4066 ft 247 kts 344°
2026-05-01 14:03 49.69375 6.27392 4609 ft 271 kts 340°
2026-05-01 14:04 49.71178 6.26303 5276 ft 287 kts 338°
2026-05-01 14:04 49.73101 6.25079 5684 ft 310 kts 337°
2026-05-01 14:04 49.75172 6.23747 6028 ft 335 kts 336°
2026-05-01 14:04 49.76629 6.22813 6271 ft 351 kts 337°
2026-05-01 14:05 49.79736 6.20843 6747 ft 374 kts 337°
2026-05-01 14:05 49.82199 6.19303 7400 ft 380 kts 338°
2026-05-01 14:05 49.84635 6.17789 8131 ft 384 kts 338°
2026-05-01 14:05 49.87130 6.16241 8874 ft 389 kts 338°
2026-05-01 14:06 49.89656 6.14671 9601 ft 394 kts 338°
2026-05-01 14:06 49.92213 6.13080 10307 ft 398 kts 338°
2026-05-01 14:06 49.94797 6.11471 11000 ft 402 kts 338°
2026-05-01 14:06 49.97407 6.09844 11654 ft 406 kts 338°
2026-05-01 14:07 50.00043 6.08197 12314 ft 410 kts 338°
2026-05-01 14:07 50.02701 6.06529 12955 ft 415 kts 338°
2026-05-01 14:07 50.05393 6.04836 13514 ft 421 kts 338°
2026-05-01 14:08 50.10586 6.00441 14573 ft 431 kts 324°
2026-05-01 14:08 50.13057 5.97734 15131 ft 435 kts 325°
2026-05-01 14:08 50.15542 5.95028 15664 ft 438 kts 325°
2026-05-01 14:08 50.18040 5.92277 16182 ft 441 kts 324°
2026-05-01 14:09 50.20546 5.89498 16697 ft 444 kts 324°
2026-05-01 14:09 50.23069 5.86685 17204 ft 446 kts 324°
2026-05-01 14:09 50.25598 5.83853 17699 ft 449 kts 324°
2026-05-01 14:09 50.28146 5.80997 18134 ft 453 kts 324°
2026-05-01 14:10 50.30726 5.78106 18247 ft 457 kts 324°
2026-05-01 14:10 50.33311 5.75208 18259 ft 458 kts 324°
2026-05-01 14:10 50.35893 5.72318 18018 ft 453 kts 324°
2026-05-01 14:10 50.38444 5.69461 17272 ft 449 kts 324°
2026-05-01 14:11 50.40973 5.66625 16566 ft 445 kts 324°
2026-05-01 14:11 50.45973 5.61004 15223 ft 439 kts 324°
2026-05-01 14:11 50.48442 5.58219 14578 ft 435 kts 323°
2026-05-01 14:12 50.50892 5.55452 13979 ft 432 kts 323°
2026-05-01 14:12 50.53317 5.52705 13305 ft 428 kts 323°
2026-05-01 14:12 50.55721 5.49973 12693 ft 424 kts 323°
2026-05-01 14:12 50.58078 5.47296 12315 ft 413 kts 323°
2026-05-01 14:13 50.60381 5.44681 11935 ft 403 kts 323°
2026-05-01 14:13 50.61870 5.42990 11693 ft 396 kts 323°
2026-05-01 14:13 50.64810 5.39651 11283 ft 382 kts 323°
2026-05-01 14:13 50.66930 5.37241 11037 ft 370 kts 323°
2026-05-01 14:14 50.68961 5.34925 10797 ft 360 kts 323°
2026-05-01 14:14 50.70986 5.32609 10561 ft 351 kts 323°
2026-05-01 14:14 50.72926 5.30393 10470 ft 337 kts 323°
2026-05-01 14:14 50.74791 5.28261 10400 ft 324 kts 323°
2026-05-01 14:15 50.76584 5.26209 10297 ft 314 kts 323°
2026-05-01 14:15 50.77743 5.24882 10201 ft 309 kts 323°
2026-05-01 14:15 50.80022 5.22269 9817 ft 304 kts 322°
2026-05-01 14:15 50.81727 5.20306 9481 ft 303 kts 322°
2026-05-01 14:16 50.83424 5.18351 9133 ft 301 kts 322°
2026-05-01 14:16 50.85110 5.16410 8773 ft 299 kts 322°
2026-05-01 14:16 50.86775 5.14463 8429 ft 296 kts 318°
2026-05-01 14:16 50.87768 5.12957 8114 ft 291 kts 309°
2026-05-01 14:17 50.88922 5.10372 7493 ft 286 kts 300°
2026-05-01 14:17 50.89979 5.07713 6917 ft 284 kts 300°
2026-05-01 14:17 50.91029 5.05091 6319 ft 281 kts 300°
2026-05-01 14:17 50.92074 5.02491 5692 ft 279 kts 300°
2026-05-01 14:18 50.93116 4.99902 5258 ft 279 kts 300°
2026-05-01 14:18 50.94156 4.97317 4914 ft 277 kts 300°
2026-05-01 14:18 50.95183 4.94758 4626 ft 273 kts 300°
2026-05-01 14:18 50.96191 4.92248 4406 ft 267 kts 301°
2026-05-01 14:19 50.97136 4.89771 4187 ft 259 kts 292°
2026-05-01 14:19 50.97601 4.87104 4073 ft 245 kts 270°
2026-05-01 14:19 50.97416 4.84494 3985 ft 234 kts 250°
2026-05-01 14:19 50.96838 4.82156 3735 ft 227 kts 242°
2026-05-01 14:20 50.96218 4.79883 3424 ft 224 kts 246°
2026-05-01 14:20 50.95187 4.75433 2889 ft 205 kts 247°
2026-05-01 14:20 50.94696 4.73337 2816 ft 196 kts 247°
2026-05-01 14:21 50.94245 4.71368 2603 ft 192 kts 247°
2026-05-01 14:21 50.93805 4.69371 2373 ft 191 kts 248°
2026-05-01 14:21 50.93367 4.67397 2162 ft 187 kts 247°
2026-05-01 14:22 50.92515 4.63747 1661 ft 169 kts 249°
2026-05-01 14:22 50.92138 4.62045 1552 ft 157 kts 246°
2026-05-01 14:22 50.91791 4.60445 1276 ft 152 kts 249°
2026-05-01 14:22 50.91446 4.58906 1020 ft 145 kts 245°
2026-05-01 14:23 50.91081 4.57414 853 ft 144 kts 245°
2026-05-01 14:23 50.90716 4.55931 664 ft 147 kts 246°
2026-05-01 14:23 50.90371 4.54419 490 ft 144 kts 245°
2026-05-01 14:23 50.90027 4.52915 268 ft 145 kts 247°
2026-05-01 14:24 50.89696 4.51423 183 ft 136 kts 247°
2026-05-01 14:24 50.89401 4.50218 176 ft 94 kts 249°
2026-05-01 14:24 50.89253 4.49577 176 ft 42 kts 251°
2026-05-01 14:24 50.89250 4.49267 174 ft 29 kts 302°
2026-05-01 14:25 50.89375 4.49043 164 ft 14 kts 313°
2026-05-01 14:25 50.89474 4.49027 159 ft 16 kts 14°
2026-05-01 14:25 50.89582 4.49077 155 ft 17 kts 18°
2026-05-01 14:25 50.89690 4.49156 149 ft 18 kts
2026-05-01 14:26 50.89809 4.49213 143 ft 19 kts 13°
2026-05-01 14:26 50.90114 4.49334 131 ft 19 kts 14°
2026-05-01 14:26 50.90225 4.49379 128 ft 11 kts 14°
2026-05-01 14:27 50.90301 4.49409 125 ft 12 kts 14°
2026-05-01 14:27 50.90381 4.49438 124 ft 11 kts
2026-05-01 14:27 50.90412 4.49360 124 ft 9 kts 254°
2026-05-01 14:28 50.90366 4.49202 124 ft 7 kts 244°
2026-05-01 14:28 50.90341 4.49113 123 ft 11 kts 245°
2026-05-01 14:28 50.90306 4.48989 123 ft 13 kts 247°
2026-05-01 14:28 50.90264 4.48847 121 ft 15 kts 245°
2026-05-01 14:29 50.90226 4.48716 124 ft 8 kts 248°
2026-05-01 14:29 50.90258 4.48655 122 ft 9 kts 334°
2026-05-01 14:30 50.90293 4.48630 120 ft 0 kts 334°